{"data":{"norad_id":67729,"intl_designator":"2026-026J","name":"STARLINK-36751","alt_names":[],"object_type":"PAYLOAD","status":"ACTIVE","operator":null,"country":"US","launch_date":"2026-02-11","launch_site_code":"AFWTR","launch_vehicle":null,"mission":null,"orbit_class":"UNKNOWN","rcs_meters":null,"size_class":null,"mass_kg":null,"dimensions":null,"purposes":["comms"],"wikipedia_slug":null,"has_3d_model":false,"image_url":null,"decayed_at":null,"tle_current":{"epoch":"2026-05-25T03:41:31.120224Z","epoch_age_seconds":57821,"freshness":"FRESH","line1":"1 67729U 26026J   26145.15383241  .00016156  00000+0  50168-3 0  9993","line2":"2 67729  97.2845 198.6675 0000218 193.7337 166.3899 15.33445535 15842","mean_motion":15.33445535,"eccentricity":2.18e-5,"inclination_deg":97.2845,"raan_deg":198.6675,"arg_perigee_deg":193.7337,"mean_anomaly_deg":166.3899,"bstar":0.00050168,"rev_number":1584,"period_min":93.906171894133,"perigee_km":465.3923905019,"apogee_km":465.6907748881,"semimajor_km":6843.678582695,"source":"CELESTRAK","updated_at":"2026-05-25T13:38:21.686704Z"}}}